This demonstration page uses our WeatherBlox Daily Observations layout. Learn more.

Left ArrowRight Arrow

39.01783, -85.05884

Hourly Observations for August 10, 2015

Temp ( °F °C ) Dew Point ( °F °C ) Humidity (%) Winds ( mph kmh ) Pressure ( in mb ) Visibility ( mi km ) Precip ( " mm )
12:52 am 00:52 Cloudy 75 23.9 68 20 79 79 ESE 5 7 29.94 1014 10 16.0934 N/A
1:52 am 01:52 Cloudy 74 23.3 68 20 82 82 N N/A 29.92 1013 10 16.0934 N/A
2:52 am 02:52 Cloudy 74 23.3 68 20 82 82 N N/A 29.91 1013 10 16.0934 N/A
3:52 am 03:52 Cloudy 73 22.8 68 20 84 84 SSE 5 7 29.88 1012 10 16.0934 N/A
4:52 am 04:52 Cloudy 74 23.3 68 20 82 82 SSE 6 9 29.86 1011 10 16.0934 N/A
5:52 am 05:52 Cloudy 74 23.3 68 20 82 82 SSE 6 9 29.87 1012 10 16.0934 N/A
6:52 am 06:52 Mostly Cloudy 73 22.8 68 20 84 84 S 5 7 29.86 1011 10 16.0934 N/A
7:52 am 07:52 Cloudy 74 23.3 69 20.6 85 85 S 6 9 29.86 1011 9 14.48406 N/A
8:52 am 08:52 Cloudy 75 23.9 69 20.6 82 82 S 6 9 29.86 1011 9 14.48406 N/A
9:52 am 09:52 Cloudy 76 24.4 70 21.1 82 82 SSW 8 13 29.85 1011 9 14.48406 N/A
10:52 am 10:52 Cloudy 79 26.1 72 22.2 79 79 SSW 9 15 29.86 1011 9 14.48406 N/A
11:52 am 11:52 Cloudy 80 26.7 73 22.8 79 79 SSW 10 17 29.87 1012 7 11.26538 N/A
12:52 pm 12:52 Mostly Cloudy 83 28.3 72 22.2 70 70 SW 13 20 29.84 1011 10 16.0934 N/A
1:52 pm 13:52 Cloudy 82 27.8 73 22.8 74 74 SW 13 20 29.84 1010 9 14.48406 N/A
2:52 pm 14:52 Partly Cloudy 85 29.4 73 22.8 68 68 WSW 9 15 29.8 1009 10 16.0934 N/A
3:52 pm 15:52 Mostly Cloudy 87 30.6 74 23.3 65 65 W 12 19 29.78 1009 10 16.0934 N/A
4:52 pm 16:52 Mostly Cloudy with Light Rain 83 28.3 73 22.8 72 72 WSW 12 19 29.78 1008 10 16.0934 0.05 1.27
5:52 pm 17:52 Mostly Cloudy with Light Rain 84 28.9 73 22.8 70 70 W 12 19 29.75 1007 10 16.0934 0.01 0.254
6:50 pm 18:50 Mostly Cloudy with Thunderstorms 82 28 72 22 70 70 NNW 17 28 29.74 1007 10 16.0934 N/A
6:52 pm 18:52 Windy with Storms Likely 81 27.2 70 21.1 69 69 N 23 37 29.78 1008 10 16.0934 N/A
6:56 pm 18:56 Mostly Cloudy with Heavy Thunderstorms 75 24 68 20 78 78 NNW 26 43 29.8 1009 2 3.21868 N/A
7:00 pm 19:00 Cloudy with Heavy Thunderstorms 72 22 70 21 94 94 N 17 28 29.8 1009 1 1.60934 0.07 1.778
7:05 pm 19:05 Cloudy with Heavy Thunderstorms 70 21 66 19 88 88 N 9 15 29.8 1009 1 1.60934 0.46 11.684
7:08 pm 19:08 Cloudy with Light Thunderstorms 70 21 66 19 88 88 NNE 8 13 29.8 1009 6 9.65604 N/A
7:21 pm 19:21 Cloudy with Light Thunderstorms 70 21 68 20 94 94 SSW 9 15 29.8 1009 8 12.87472 0.51 12.954
7:44 pm 19:44 Mostly Cloudy 72 22 70 21 94 94 WSW 7 11 29.8 1009 10 16.0934 N/A
7:52 pm 19:52 Mostly Cloudy 72 22.2 69 20.6 91 91 WSW 8 13 29.8 1009 10 16.0934 0.51 12.954
8:52 pm 20:52 Partly Cloudy with Mist and Fog 71 21.7 70 21.1 96 96 SW 5 7 29.81 1010 6 9.65604 N/A
9:52 pm 21:52 Clear 70 21.1 69 20.6 97 97 N N/A 29.81 1010 7 11.26538 N/A
10:52 pm 22:52 Mostly Clear with Mist and Fog 70 21.1 69 20.6 97 97 WSW 5 7 29.83 1010 6 9.65604 N/A
11:52 pm 23:52 Partly Cloudy 71 21.7 70 21.1 96 96 WSW 5 7 29.84 1010 7 11.26538 N/A

Powered by AerisWeather